TimeCDT,TemperatureF,Dew PointF,Humidity,Sea Level PressureIn,VisibilityMPH,Wind Direction,Wind SpeedMPH,Gust SpeedMPH,PrecipitationIn,Events,Conditions,WindDirDegrees,DateUTC
12:53 AM,43.0,37.0,80,30.19,10.0,NNW,4.6,-,N/A,,Clear,330,2012-10-28 05:53:00
1:53 AM,43.0,37.0,80,30.19,10.0,NNW,4.6,-,N/A,,Clear,340,2012-10-28 06:53:00
2:53 AM,42.1,36.0,79,30.19,10.0,NNW,3.5,-,N/A,,Clear,340,2012-10-28 07:53:00
3:53 AM,41.0,36.0,82,30.19,10.0,NNW,4.6,-,N/A,,Clear,340,2012-10-28 08:53:00
4:53 AM,39.9,35.1,83,30.19,10.0,NNW,4.6,-,N/A,,Clear,330,2012-10-28 09:53:00
5:53 AM,39.0,35.1,86,30.20,10.0,Calm,Calm,-,N/A,,Clear,0,2012-10-28 10:53:00
6:53 AM,39.9,34.0,79,30.22,10.0,North,4.6,-,N/A,,Clear,350,2012-10-28 11:53:00
7:53 AM,39.9,34.0,79,30.24,10.0,Calm,Calm,-,N/A,,Clear,0,2012-10-28 12:53:00
8:53 AM,44.1,36.0,73,30.26,10.0,North,3.5,-,N/A,,Clear,360,2012-10-28 13:53:00
9:53 AM,48.0,35.1,61,30.27,10.0,NNE,6.9,-,N/A,,Clear,20,2012-10-28 14:53:00
10:53 AM,50.0,36.0,59,30.26,10.0,North,6.9,-,N/A,,Clear,10,2012-10-28 15:53:00
12:53 PM,55.9,34.0,44,30.25,10.0,NW,10.4,-,N/A,,Clear,320,2012-10-28 17:53:00
1:53 PM,57.0,32.0,39,30.22,10.0,NNW,10.4,17.3,N/A,,Clear,340,2012-10-28 18:53:00
2:53 PM,59.0,30.0,33,30.20,10.0,North,8.1,-,N/A,,Clear,360,2012-10-28 19:53:00
3:53 PM,60.1,30.9,33,30.19,10.0,North,8.1,17.3,N/A,,Clear,350,2012-10-28 20:53:00
4:53 PM,60.1,30.9,33,30.18,10.0,Variable,5.8,-,N/A,,Clear,0,2012-10-28 21:53:00
5:53 PM,57.9,30.9,36,30.18,10.0,North,5.8,-,N/A,,Clear,360,2012-10-28 22:53:00
6:53 PM,54.0,34.0,47,30.19,10.0,Calm,Calm,-,N/A,,Clear,0,2012-10-28 23:53:00
7:53 PM,46.0,39.0,76,30.20,10.0,Calm,Calm,-,N/A,,Clear,0,2012-10-29 00:53:00
8:53 PM,46.9,41.0,80,30.21,10.0,Calm,Calm,-,N/A,,Clear,0,2012-10-29 01:53:00
9:53 PM,45.0,39.0,80,30.22,10.0,Calm,Calm,-,N/A,,Clear,0,2012-10-29 02:53:00
10:53 PM,42.1,39.9,92,30.23,10.0,Calm,Calm,-,N/A,,Clear,0,2012-10-29 03:53:00
11:53 PM,42.1,39.0,89,30.23,10.0,Calm,Calm,-,N/A,,Clear,0,2012-10-29 04:53:00